Погода в Новомальтинске

Россия / Иркутская область     52°52′08″N   103°33′05″E
В апреле 2022 года жителям России запретили посещать сайт meteo.paraplan.net по решению Генеральной прокуратуры. Аудитория сайта уменьшилась в 10 раз. Владельцы сайта не видят смысла в поддержке погодного сервера в таких условиях. Сайт будет закрыт в октябре.
темп.,
°C
ветер,
м/с
пор.,
м/с
влажн.,
%
обл.,
%
осадки,
мм/ч
давл.,
гПа
погр.,
м
25 сентября, вс
вс2523:00+4зсз3981100 0.3 1019563
02:00+3зсз4982100 0.3 1020571
05:00+1з2694100 0.0 1021217
08:00+2ююз119397 0.0 102045
11:00+6юв3466100 0.0 1017640
14:00+8юв4554100 0.0 1014839
17:00+10ююв2351100 0.0 1011438
20:00+6ссз4989100 0.8 1015787
26 сентября, пн
пн2623:00+3сз378998 0.3 1017463
02:00+2ююв119297 0.3 101539
05:00+1вюв3896100 0.0 1012259
08:00+3юв51291100 0.0 1006486
11:00+9юв4574100 0.0 1003402
14:00+15юв2353100 0.0 1000467
17:00+12с3771100 0.2 1002221
20:00+8с2691100 0.2 1004156
27 сентября, вт
вт2723:00+5ссз51294100 3.1 1009925
02:00+4сз41181100 6.2 10121031
05:00+2зсз3884100 0.0 1015701
08:00+2ссз2481100 0.0 1015398
11:00+4всв1165100 0.0 1014684
14:00+3ююв1288100 1.6 1014402
17:00+4ююв1286100 0.4 1013468
20:00+3ю1298100 0.4 1014206
28 сентября, ср
ср2823:00+2ю139499 0.0 1013301
02:00+2вюв249589 0.0 1012224
05:00+2в269299 0.0 1010221
08:00+1в2588100 0.0 1008164
11:000с2399100 4.6 100984
14:00+1сз24100100 14.1 1011121
17:00+1зсз26100100 3.7 1014225
20:00+1зсз3799100 4.3 1016531
29 сентября, чт
чт2923:00+1з27100100 0.3 1017335
02:00+1зюз15100100 0.3 1017183
05:00+1юз1199100 0.0 101716
08:00+2юв0097100 0.0 101730
11:00+4в1285100 0.0 1016372
14:00+6вюв2381100 0.0 1015753
17:00+5всв1294100 0.0 101565
20:00+3в159886 0.0 1015121